Debrecen, Hungary

11:12 PM CET on February 09, 2016 (GMT +0100)
Debrecen

Weather History for LHDC - December, 2013

Change the Weather History Date:

Thursday, December 12, 2013

  Actual Average Record
Temperature  
Mean Temperature 28 °F -  
Max Temperature 34 °F 35 °F - ()
Min Temperature 22 °F 25 °F - ()
Degree Days  
Heating Degree Days 38    
Moisture  
Dew Point 24 °F    
Average Humidity 75    
Maximum Humidity 86    
Minimum Humidity 62    
Precipitation  
Precipitation 0.00 in 0.05 in - ()
Sea Level Pressure  
Sea Level Pressure 30.54 in    
Wind  
Wind Speed 2 mph ()    
Max Wind Speed 4 mph    
Max Gust Speed -    
Visibility 4.1 miles    
Events      
T = Trace of Precipitation, MM = Missing Value Source: Averaged Metar Reports

Daily Weather History Graph

Daily Weather History Graph

Search for Another Location

Airport or City:

Trip Planner

Search our weather history database for the weather conditions in past years. The results will help you decide how hot, cold, wet, or windy it might be!

Date:

Astronomy

Dec. 12, 2013 Rise Set
Actual Time 7:12 AM CET 3:42 PM CET
Civil Twilight 6:36 AM CET 4:18 PM CET
Nautical Twilight 5:57 AM CET 4:57 PM CET
Astronomical Twilight 5:19 AM CET 5:34 PM CET
Moon 12:53 PM CET (12/12) 1:59 AM CET (12/12)
Length of Visible Light 9h 41m
Length of Day
8h 30m
Waxing Gibbous, 78% of the Moon is Illuminated
Dec 12
Waxing Gibbous
Dec 17
Full
Dec 25
Last Quarter
Jan 1
New
Jan 8
First Quarter

Hourly Weather History & Observations

Time (CET) Temp. Windchill Dew Point Humidity Pressure Visibility Wind Dir Wind Speed Gust Speed Precip Events Conditions
1:00 AM 24 °F - 21 °F 83% 30.62 in - SW 2.2 mph - -  
5:15 AM 28.4 °F - 23.0 °F 80% 30.57 in - South 1.2 mph - N/A   Clear
5:45 AM 28.4 °F - 24.8 °F 86% 30.57 in - South 2.3 mph - N/A   Clear
6:00 AM - - - N/A% - 3.7 mi Variable 3.5 mph - N/A   Clear
6:15 AM 28.4 °F - 23.0 °F 80% 30.57 in - South 1.2 mph - N/A   Clear
6:45 AM 28.4 °F - 23.0 °F 80% 30.57 in - SE 1.2 mph - N/A   Clear
7:00 AM 29 °F - 24 °F 73% 30.59 in 6 mi SE 2.2 mph - -   Partly Cloudy
7:15 AM 28.4 °F - 23.0 °F 80% 30.57 in 4.3 mi South 2.3 mph - N/A   Overcast
7:45 AM 28.4 °F - 23.0 °F 80% 30.57 in 3.7 mi Calm Calm - N/A   Mostly Cloudy
8:15 AM 28.4 °F - 23.0 °F 80% 30.54 in 3.7 mi SSW 2.3 mph - N/A   Mostly Cloudy
8:45 AM 30.2 °F - 23.0 °F 75% 30.54 in 4.3 mi Calm Calm - N/A   Mostly Cloudy
9:00 AM - - - N/A% - 4.3 mi Variable 3.5 mph - N/A   Overcast
9:15 AM 30.2 °F - 24.8 °F 80% 30.54 in 5.0 mi WSW 2.3 mph - N/A   Mostly Cloudy
9:45 AM 30.2 °F - 24.8 °F 80% 30.54 in 4.3 mi WSW 2.3 mph - N/A   Overcast
10:15 AM 32.0 °F 28.7 °F 24.8 °F 75% 30.54 in 5.0 mi WSW 3.5 mph - N/A   Overcast
10:45 AM 32.0 °F - 24.8 °F 75% 30.54 in 4.3 mi WSW 2.3 mph - N/A   Overcast
11:15 AM 32.0 °F - 24.8 °F 75% 30.54 in 3.7 mi West 2.3 mph - N/A   Overcast
11:45 AM 32.0 °F - 24.8 °F 75% 30.54 in 3.7 mi Calm Calm - N/A   Overcast
12:00 PM - - - N/A% - 4.3 mi Variable 3.5 mph - N/A   Overcast
12:15 PM 33.8 °F - 24.8 °F 70% 30.54 in 3.7 mi WSW 2.3 mph - N/A   Overcast
12:45 PM 33.8 °F 30.8 °F 24.8 °F 70% 30.51 in 3.7 mi WSW 3.5 mph - N/A   Overcast
1:00 PM 33 °F - 25 °F 62% 30.53 in 4 mi WSW 4.5 mph - -   Partly Cloudy
1:15 PM 33.8 °F 30.8 °F 24.8 °F 70% 30.51 in 3.7 mi WSW 3.5 mph - N/A   Overcast
1:45 PM 33.8 °F 30.8 °F 24.8 °F 70% 30.51 in 3.7 mi WSW 3.5 mph - N/A   Overcast
2:15 PM 33.8 °F 30.8 °F 24.8 °F 70% 30.51 in 3.7 mi West 3.5 mph - N/A   Overcast
2:45 PM 33.8 °F 30.8 °F 24.8 °F 70% 30.51 in 3.7 mi WSW 3.5 mph - N/A   Mostly Cloudy
3:15 PM 33.8 °F - 24.8 °F 70% 30.48 in 3.7 mi WSW 2.3 mph - N/A   Overcast
3:45 PM 33.8 °F - 24.8 °F 70% 30.48 in 3.7 mi West 2.3 mph - N/A   Overcast
4:15 PM 33.8 °F - 24.8 °F 70% 30.48 in 3.7 mi West 1.2 mph - N/A   Overcast
4:45 PM 33.8 °F - 24.8 °F 70% 30.48 in 3.7 mi Calm Calm - N/A   Overcast
5:00 PM - - - N/A% - - North - - N/A   Unknown
7:00 PM 33 °F - 27 °F 70% 30.50 in - SSW 2.2 mph - -